STARLINK-32269, 60377

Orbit data source: Space-Track

STARLINK-32269, 60377 is a payload satellite owned by SpaceX/Seattle (US) in LEO that was launched on Sun, 04 Aug 2024 UTC via an FALCON 9 launch vehicle from the Air Force Western Test Range (AFWTR). Payload-class satellites include a variety of spacecraft equipped with specific instruments for various scientific and technological missions. These include communications satellites like Starlink; space stations such as the ISS; scientific satellites like the Hubble; Earth observation satellites from companies like Planet Labs, Umbra, and HawkEye 360; GPS; miniature CubeSats for education and research; and military/defense satellites.

Loading next visibility...
Identifier
60377, 2024-138Y
Orbit
LEO
Country
Flag of USUS
Related business
Manufacturer
SpaceX/Seattle
Mission
Operational Commercial Communications
Bus & Motor
STARLINK V2M, Unknown motor
Mass
730 kg wet, ~700 kg dry
Launch date (UTC)
2024-08-04 (2 years ago)
Launch vehicle
FALCON 9
Launch site
Air Force Western Test Range (AFWTR)
Object type
Payload
Rocket body
Debris
Shape & HBR
Box + 2 Pan, 17.7 m
Radar Cross Section
33.884 m², Large (>1 m²)

Expand to show TLE details & history
Last TLE update: 15 hours ago

TLE from 15 hours ago
0 STARLINK-32269
1 60377U 24138Y   26258.11253331 -.00000103  00000-0  84441-5 0  9994
2 60377  53.1598 148.7175 0001316  89.5491 270.5661 15.31716309119640
Epoch: 2026-09-15T02:42Z
TLE epoch observation values (Epoch: 2026-09-15T02:42:02.877Z)
Latitude
-0.00006°
Longitude
114.12231°
Altitude
471.583 km
Speed
7.631 km/s
True Right ascension
09h 54m 52s
True Declination
0° 00' 00"
Sunlit
Object was in daylight at epoch
Visualization orbit readout
Latitude
Unknown
Longitude
Unknown
Altitude
Unknown
Speed
Unknown
Apparent Right ascension
Unknown
Apparent Declination
Unknown
Sunlit
N/A
Visualization observer readout
Local Sidereal Time
10:22:30
Azimuth
Unknown
Elevation
Unknown
Doppler factor
Unknown
Orbital elements
Apogee altitude
471.849 km
Perigee altitude
470.047 km
Semi-major axis
6,849.085 km
Eccentricity
0.00013
Inclination
53.1598°
RAAN
148.7175°
Arg. of periapsis
89.5491°
True anomaly
270.55102°
Mean anomaly
270.5661°
Eccentric anomaly
270.55856°
Mean motion
3.82908 °/min
Orbital period
94.02 mins
BSTAR
0.0000084441
Loading maneuver chart data...
Computing Atmospheric mass density...
Loading historical data...
Loading historical data...
Loading historical data...
Loading historical data...
Loading historical data...
Loading historical data...
Loading historical data...

Documentation

Showing up to 5 results
|